Weather History for Connaught Airport, Ireland

Change the Weather History Date:

Sunday, December 9, 2012

  Actual Average Record
Temperature  
Mean Temperature 42 °F -  
Max Temperature 43 °F - - ()
Min Temperature 40 °F - - ()
Degree Days  
Heating Degree Days 22    
Moisture  
Dew Point 42 °F    
Average Humidity 96    
Maximum Humidity 100    
Minimum Humidity 76    
Precipitation  
Precipitation 0.02 in - - ()
Sea Level Pressure  
Sea Level Pressure 30.19 in    
Wind  
Wind Speed 8 mph ()    
Max Wind Speed 12 mph    
Max Gust Speed -    
Visibility 5.7 miles    
Events Fog , Rain    
T = Trace of Precipitation, MM = Missing Value Source: Averaged Metar Reports

Daily Weather History Graph

Daily Weather History Graph

Search for Another Location

Airport:

Trip Planner

Search our weather history database for the weather conditions in past years. The results will help you decide how hot, cold, wet, or windy it might be!

Date:

Astronomy

Dec. 09, 2012 Rise Set
Actual Time 8:41 AM GMT 4:13 PM GMT
Civil Twilight 7:58 AM GMT 4:56 PM GMT
Nautical Twilight 7:12 AM GMT 5:42 PM GMT
Astronomical Twilight 6:29 AM GMT 6:25 PM GMT
Moon 3:27 AM GMT (12/9) 1:39 PM GMT (12/9)
Length of Visible Light 8h 58m
Length of Day
7h 32m
Waning Crescent, 20% of the Moon is Illuminated
Dec 9
Waning Crescent
Dec 13
New
Dec 20
First Quarter
Dec 28
Full
Jan 5
Last Quarter

Hourly Weather History & Observations

Time (GMT) Temp. Windchill Dew Point Humidity Pressure Visibility Wind Dir Wind Speed Gust Speed Precip Events Conditions
6:00 AM 43 °F - 42 °F 97% 30.23 in - West 11.2 mph - -  
8:00 AM 42.8 °F 36.6 °F 42.8 °F 100% 30.18 in 6.2 mi West 11.5 mph - N/A   Mostly Cloudy
8:30 AM 42.8 °F 38.0 °F 42.8 °F 100% 30.18 in 3.1 mi West 8.1 mph - N/A   Mostly Cloudy
9:00 AM 42.8 °F 37.5 °F 42.8 °F 100% 30.18 in 6.2 mi West 9.2 mph - N/A   Mostly Cloudy
9:30 AM 42.8 °F 37.5 °F 42.8 °F 100% 30.18 in 6.2 mi West 9.2 mph - N/A   Mostly Cloudy
10:00 AM 42.8 °F 38.0 °F 42.8 °F 100% 30.18 in 6.2 mi WNW 8.1 mph - N/A   Mostly Cloudy
10:30 AM 42.8 °F 37.5 °F 42.8 °F 100% 30.18 in 6.2 mi West 9.2 mph - N/A   Scattered Clouds
11:00 AM 42.8 °F 37.5 °F 42.8 °F 100% 30.18 in 6.2 mi WNW 9.2 mph - N/A   Mostly Cloudy
11:30 AM 42.8 °F 37.5 °F 42.8 °F 100% 30.21 in 6.2 mi WNW 9.2 mph - N/A   Mostly Cloudy
12:00 PM 44 °F - 43 °F 97% 30.23 in 0 mi NNW 6.7 mph - - Rain Light Drizzle
12:00 PM 44.6 °F 40.7 °F 42.8 °F 93% 30.18 in 0.3 mi NNW 6.9 mph - N/A   Light Drizzle
12:30 PM 42.8 °F 38.6 °F 42.8 °F 100% 30.18 in 3.1 mi NW 6.9 mph - N/A Rain Light Rain
1:00 PM 42.8 °F 38.0 °F 42.8 °F 100% 30.18 in 0.4 mi NNW 8.1 mph - N/A Fog Light Drizzle
1:30 PM 42.8 °F 38.6 °F 42.8 °F 100% 30.18 in 6.2 mi NW 6.9 mph - N/A   Mostly Cloudy
2:00 PM 42.8 °F 38.6 °F 42.8 °F 100% 30.18 in 6.2 mi NW 6.9 mph - N/A   Mostly Cloudy
2:30 PM 42.8 °F 38.6 °F 42.8 °F 100% 30.18 in 6.2 mi NNW 6.9 mph - N/A   Mostly Cloudy
3:00 PM 42.8 °F 38.0 °F 41.0 °F 93% 30.18 in 6.2 mi North 8.1 mph - N/A   Mostly Cloudy
3:30 PM 42.8 °F 38.0 °F 39.2 °F 87% 30.18 in 6.2 mi NNW 8.1 mph - N/A   Mostly Cloudy
4:00 PM 41.0 °F 37.1 °F 39.2 °F 93% 30.18 in 6.2 mi North 5.8 mph - N/A   Scattered Clouds
4:30 PM 41.0 °F - 39.2 °F 93% 30.18 in 6.2 mi NNW 2.3 mph - N/A   Scattered Clouds
5:00 PM 41.0 °F 36.4 °F 37.4 °F 87% 30.21 in 6.2 mi NNW 6.9 mph - N/A   Mostly Cloudy
6:00 PM 40 °F - 35 °F 76% 30.25 in 19 mi NNW 8.9 mph - -   Partly Cloudy